Weather observations for the past three days for
Fairchild Air Force Base
Metric (Imperial)
Date Time (pdt) Wind (kph) Vis. (km) Weather Sky Cond. Temperature (ºC) Relative Humidity Wind Chill (°C) Heat Index (°C) Pressure Precipitation (cm)
Air Dwpt 6 hour altimeter (cm) sea level (mb) 1 hr 3 hr 6 hr
Max. Min.
02 11:55 SE 13 16.09 Fair CLR 17.3 7.6 53% 75.72 1008.4
02 10:55 S 15 16.09 Fair CLR 14.7 7.7 14.7 11.9 63% 75.72 1008.7
02 09:55 S 20 16.09 Fair CLR 14 8.2 68% 75.69 1008.4
02 08:55 S 15 16.09 Fair CLR 13 7.9 71% 75.67 1007.8
02 07:55 SW 15 16.09 Thunderstorm in Vicinity FEW090 12.9 7.6 70% 75.64 1007.5
02 06:55 S 19 16.09 Thunderstorm BKN080 OVC100 13 7.7 70% 75.64 1007.2
02 05:55 S 19 16.09 A Few Clouds FEW100 12.6 7.1 69% 75.57 1006.1
02 04:55 S 13 16.09 Fair CLR 13.1 6.7 17.7 12.6 65% 75.54 1005.6
02 03:55 SW 17 16.09 Fair CLR 13.8 6.2 60% 75.54 1005.8
02 02:55 S 19 16.09 Fair CLR 13.9 6 59% 75.57 1006.0
02 01:55 S 6 16.09 Fair CLR 15.1 7.6 61% 75.54 1005.3
02 00:55 S 6 16.09 Fair CLR 16.3 8 58% 75.54 1005.1
01 23:55 Calm 16.09 A Few Clouds FEW100 17.3 7.9 54% 75.57 1005.6
01 22:55 SE 7 16.09 Fair CLR 15.6 7.1 24.8 15.5 57% 75.54 1005.6
01 21:55 SE 6 16.09 Fair CLR 15.8 7 56% 75.51 1005.4
01 20:55 Calm 16.09 Fair CLR 18 7.1 49% 75.54 1005.8
01 19:55 SE 7 16.09 Fair CLR 19.8 7.2 44% 75.57 1006.1
01 17:55 E 9 16.09 Fair CLR 23.8 6.5 33% 75.57 1006.0
01 16:55 Calm 16.09 Fair CLR 24.2 6 28.4 21.5 31% 25 75.59 1006.3
01 15:55 S 7 16.09 Partly Cloudy FEW065 SCT090 22.7 5.6 33% 75.64 1007.0
01 14:55 S 19 16.09 A Few Clouds FEW060 23.5 3.9 28% 75.67 1007.2
01 13:55 S 28 16.09 A Few Clouds FEW200 26.4 3 22% 26 75.62 1006.1
01 12:55 S 7 16.09 A Few Clouds FEW140 27.2 4.9 24% 26 75.59 1005.6
01 11:55 Calm 16.09 A Few Clouds FEW180 24 6.3 32% 25 75.62 1006.3
01 10:55 SE 7 16.09 Partly Cloudy FEW150 SCT210 21.4 6.1 21.8 14.2 37% 75.67 1007.2
01 09:55 NE 22 16.09 Fair CLR 20.1 6.1 40% 75.59 1006.2
01 08:55 NE 17 16.09 Fair CLR 17.6 5.8 46% 75.67 1007.2
01 07:55 NE 17 16.09 Partly Cloudy SCT140 16.4 5.7 49% 75.67 1007.2
01 06:55 NE 17 16.09 A Few Clouds FEW160 15.2 5.4 52% 75.67 1007.2
01 05:55 NE 11 16.09 Fair CLR 14.9 5.1 52% 75.67 1007.0
01 04:55 NE 13 16.09 Fair CLR 14.5 4.5 19.5 14.1 51% 75.69 1007.4
01 03:55 NE 11 16.09 Fair CLR 15.3 4 47% 75.69 1007.4
01 02:55 NE 7 16.09 Fair CLR 15.1 3.9 47% 75.69 1007.4
01 01:55 NE 7 16.09 Fair CLR 17.4 4 41% 75.69 1007.4
01 00:55 NE 7 16.09 Fair CLR 18.3 3.7 38% 75.72 1007.7
31 23:55 N 7 16.09 Fair CLR 18.9 3.1 35% 75.74 1008.0
31 22:55 E 7 16.09 Fair CLR 18 2.7 27.3 18 36% 75.74 1008.4
31 21:55 NE 13 16.09 Fair CLR 19.9 2.3 31% 75.77 1008.7
31 20:55 N 13 16.09 Fair CLR 21.2 2 28% 75.79 1009.2
31 19:55 NE 9 16.09 Fair CLR 23.2 2.1 25% 75.79 1009.2
31 18:55 NE 13 16.09 Fair CLR 25.5 2.2 22% 25 75.82 1009.6
31 17:55 NE 7 16.09 Fair CLR 27.1 1.5 19% 26 75.84 1009.9
31 15:55 NE 6 16.09 Fair CLR 26.8 1.9 20% 26 75.95 1011.1
31 14:55 N 6 16.09 Fair CLR 26 2 21% 26 76 1011.8
31 13:55 NE 9 16.09 Fair CLR 24.9 2.3 23% 25 76.05 1012.7
31 12:55 NE 13 16.09 Fair CLR 24.4 2.5 24% 25 76.12 1013.7
31 11:55 NE 13 16.09 Fair CLR 22.7 2.7 27% 76.17 1014.4
31 10:55 E 15 16.09 Fair CLR 20.6 2.4 20.6 7 30% 76.23 1015.4
31 09:55 NE 15 16.09 Fair CLR 18.1 3.6 38% 76.23 1015.2
31 08:55 E 11 16.09 Fair CLR 15.5 3.6 45% 76.25 1015.8
31 07:55 E 11 16.09 Fair CLR 12.9 4.3 56% 76.25 1015.9
31 06:55 NE 6 16.09 Fair CLR 9.8 2.4 60% 76.23 1015.6
31 05:55 E 7 16.09 Fair CLR 8.2 1.6 63% 7 76.2 1015.4
31 04:55 Calm 16.09 Fair CLR 10.5 2.3 13.9 9 57% 76.2 1015.1
31 03:55 Calm 16.09 Fair CLR 10.3 2.2 58% 76.2 1015.2
31 02:55 Calm 16.09 Fair CLR 11.4 2.7 55% 76.2 1015.1
31 01:55 Calm 16.09 Fair CLR 10.9 2 55% 76.2 1015.1
31 00:55 Calm 16.09 Fair CLR 12.4 2 49% 76.23 1015.4
30 23:55 Calm 16.09 Fair CLR 12.5 2.1 49% 76.23 1015.4
30 22:55 W 7 16.09 Fair CLR 11.4 1.3 21.2 11 50% 76.25 1016.1
30 21:55 S 6 16.09 Fair CLR 15.1 2.6 43% 76.23 1015.6
30 20:55 W 6 16.09 NULL NULL 16.4 1.3 36% 76.25 1016.1
30 19:55 SW 9 16.09 Fair CLR 17.3 1.3 34% 76.23 1015.7
30 18:55 SW 11 16.09 Fair CLR 19.4 1.4 30% 76.23 1015.9
30 17:55 W 15 16.09 Fair CLR 20.7 1.5 28% 76.23 1015.6
30 16:55 W 9 16.09 Fair CLR 21 1.3 21.4 16.8 27% 76.25 1015.9
30 15:55 S 13 16.09 Fair CLR 20.8 1.6 28% 76.25 1015.8
30 14:55 W 19 G 26 16.09 Fair CLR 20.5 1.8 29% 76.3 1016.6
30 13:55 W 24 G 31 16.09 Fair CLR 20.4 2.2 30% 76.3 1016.6
30 12:55 SW 19 G 28 16.09 Fair CLR 19.7 2.5 32% 76.33 1016.8
Date Time (pdt) Wind (kph) Vis. (km) Weather Sky Cond. Air Dwpt Max. Min. Relative Humidity Wind Chill (°C) Heat Index (°C) altimeter (cm) sea level (mb) 1 hr 3 hr 6 hr
6 hour
Temperature (ºC) Pressure Precipitation (cm)